Sedona, AZ

11:32 AM MST on October 18, 2017 (GMT -0700)
Sedona

Weather History for KSEZ - May, 2013

Change the Weather History Date:

Saturday, May 11, 2013

  Actual Average Record
Temperature  
Mean Temperature 70 °F -  
Max Temperature 82 °F 80 °F 87 °F (2012)
Min Temperature 59 °F 46 °F 42 °F (2011)
Cooling Degree Days 6    
Growing Degree Days 20 (Base 50)    
Moisture  
Dew Point 32 °F    
Average Humidity 26    
Maximum Humidity 45    
Minimum Humidity 14    
Precipitation  
Precipitation 0.00 in - - ()
Sea Level Pressure  
Sea Level Pressure 30.26 in    
Wind  
Wind Speed 12 mph (ENE)    
Max Wind Speed 21 mph    
Max Gust Speed 30 mph    
Visibility 10 miles    
Events      
Averages and records for this station are not official NWS values.
T = Trace of Precipitation, MM = Missing Value Source: NWS Daily Summary

Daily Weather History Graph

Daily Weather History Graph

Search for Another Location

Airport or City:

Trip Planner

Search our weather history database for the weather conditions in past years. The results will help you decide how hot, cold, wet, or windy it might be!

Date:

Astronomy

May. 11, 2013 Rise Set
Actual Time 5:26 AM MST 7:20 PM MST
Civil Twilight 4:59 AM MST 7:48 PM MST
Nautical Twilight 4:25 AM MST 8:22 PM MST
Astronomical Twilight 3:49 AM MST 8:58 PM MST
Moon 6:38 AM MST (5/11) 9:02 PM MST (5/11)
Length of Visible Light 14h 49m
Length of Day
13h 53m
Waxing Crescent, 3% of the Moon is Illuminated
May 11
Waxing Crescent
May 17
First Quarter
May 24
Full
May 31
Last Quarter
Jun 8
New

Hourly Weather History & Observations

Time (MST) Temp. Dew Point Humidity Pressure Visibility Wind Dir Wind Speed Gust Speed Precip Events Conditions
12:15 AM 62.6 °F 32.0 °F 32% 30.25 in 10.0 mi ENE 9.2 mph - N/A   Clear
12:35 AM 62.6 °F 32.0 °F 32% 30.25 in 10.0 mi NE 12.7 mph - N/A   Clear
12:55 AM 62.6 °F 32.0 °F 32% 30.25 in 10.0 mi ENE 11.5 mph - N/A   Clear
1:15 AM 60.8 °F 32.0 °F 34% 30.25 in 10.0 mi NE 12.7 mph 17.3 mph N/A   Clear
1:35 AM 60.8 °F 33.8 °F 36% 30.24 in 10.0 mi NE 12.7 mph - N/A   Clear
1:55 AM 60.8 °F 33.8 °F 36% 30.24 in 10.0 mi NE 12.7 mph 17.3 mph N/A   Clear
2:15 AM 60.8 °F 33.8 °F 36% 30.23 in 10.0 mi NE 12.7 mph - N/A   Clear
2:35 AM 60.8 °F 33.8 °F 36% 30.24 in 10.0 mi NE 13.8 mph 20.7 mph N/A   Clear
2:55 AM 60.8 °F 33.8 °F 36% 30.24 in 10.0 mi NE 15.0 mph 19.6 mph N/A   Clear
3:15 AM 60.8 °F 33.8 °F 36% 30.24 in 10.0 mi NE 13.8 mph 18.4 mph N/A   Clear
3:35 AM 59.0 °F 35.6 °F 42% 30.23 in 10.0 mi NE 17.3 mph 23.0 mph N/A   Clear
3:55 AM 59.0 °F 35.6 °F 42% 30.23 in 10.0 mi NE 16.1 mph 21.9 mph N/A   Clear
4:15 AM 59.0 °F 35.6 °F 42% 30.24 in 10.0 mi NE 15.0 mph 20.7 mph N/A   Clear
4:35 AM 59.0 °F 35.6 °F 42% 30.23 in 10.0 mi NE 15.0 mph 19.6 mph N/A   Clear
4:55 AM 59.0 °F 35.6 °F 42% 30.23 in 10.0 mi ENE 15.0 mph 20.7 mph N/A   Clear
5:15 AM 59.0 °F 35.6 °F 42% 30.23 in 10.0 mi ENE 12.7 mph 20.7 mph N/A   Clear
5:35 AM 59.0 °F 35.6 °F 42% 30.24 in 10.0 mi ENE 12.7 mph 21.9 mph N/A   Clear
5:55 AM 59.0 °F 35.6 °F 42% 30.25 in 10.0 mi NE 16.1 mph 19.6 mph N/A   Scattered Clouds
6:15 AM 59.0 °F 37.4 °F 45% 30.26 in 10.0 mi NE 15.0 mph 21.9 mph N/A   Scattered Clouds
6:35 AM 60.8 °F 37.4 °F 42% 30.26 in 10.0 mi NE 9.2 mph 16.1 mph N/A   Scattered Clouds
6:55 AM 60.8 °F 37.4 °F 42% 30.27 in 10.0 mi ENE 3.5 mph - N/A   Scattered Clouds
7:15 AM 62.6 °F 37.4 °F 39% 30.27 in 10.0 mi NE 5.8 mph - N/A   Clear
7:35 AM 64.4 °F 37.4 °F 37% 30.28 in 10.0 mi NNE 4.6 mph - N/A   Clear
7:55 AM 66.2 °F 37.4 °F 35% 30.28 in 10.0 mi NE 5.8 mph - N/A   Clear
8:15 AM 68.0 °F 37.4 °F 33% 30.28 in 10.0 mi ESE 10.4 mph 17.3 mph N/A   Clear
8:35 AM 69.8 °F 37.4 °F 31% 30.29 in 10.0 mi ESE 5.8 mph 21.9 mph N/A   Clear
8:55 AM 73.4 °F 37.4 °F 27% 30.28 in 10.0 mi East 10.4 mph - N/A   Clear
9:15 AM 73.4 °F 37.4 °F 27% 30.29 in 10.0 mi East 10.4 mph 21.9 mph N/A   Clear
9:35 AM 73.4 °F 37.4 °F 27% 30.29 in 10.0 mi ESE 13.8 mph 24.2 mph N/A   Clear
9:55 AM 75.2 °F 35.6 °F 24% 30.28 in 10.0 mi ESE 17.3 mph 25.3 mph N/A   Clear
10:15 AM 77.0 °F 35.6 °F 22% 30.30 in 10.0 mi ESE 12.7 mph 19.6 mph N/A   Clear
10:35 AM 78.8 °F 35.6 °F 21% 30.29 in 10.0 mi ESE 18.4 mph 26.5 mph N/A   Clear
10:55 AM 78.8 °F 35.6 °F 21% 30.30 in 10.0 mi ESE 16.1 mph 25.3 mph N/A   Clear
11:15 AM 80.6 °F 33.8 °F 18% 30.29 in 10.0 mi ESE 13.8 mph 24.2 mph N/A   Clear
11:35 AM 80.6 °F 33.8 °F 18% 30.29 in 10.0 mi ESE 17.3 mph 28.8 mph N/A   Clear
11:55 AM 78.8 °F 32.0 °F 18% 30.29 in 10.0 mi East 12.7 mph 21.9 mph N/A   Clear
12:15 PM 82.4 °F 33.8 °F 17% 30.29 in 10.0 mi ESE 11.5 mph 21.9 mph N/A   Clear
12:35 PM 82.4 °F 32.0 °F 16% 30.28 in 10.0 mi ESE 17.3 mph 27.6 mph N/A   Clear
12:55 PM 82.4 °F 32.0 °F 16% 30.28 in 10.0 mi ESE 20.7 mph 29.9 mph N/A   Clear
1:15 PM 82.4 °F 32.0 °F 16% 30.27 in 10.0 mi ESE 18.4 mph 27.6 mph N/A   Clear
1:35 PM 82.4 °F 32.0 °F 16% 30.27 in 10.0 mi SE 13.8 mph 28.8 mph N/A   Scattered Clouds
1:55 PM 80.6 °F 30.2 °F 16% 30.27 in 10.0 mi ESE 19.6 mph 26.5 mph N/A   Scattered Clouds
2:15 PM 82.4 °F 32.0 °F 16% 30.25 in 10.0 mi ESE 17.3 mph 23.0 mph N/A   Clear
2:35 PM 80.6 °F 30.2 °F 16% 30.24 in 10.0 mi ESE 15.0 mph 23.0 mph N/A   Scattered Clouds
2:55 PM 82.4 °F 30.2 °F 15% 30.24 in 10.0 mi ESE 8.1 mph 21.9 mph N/A   Scattered Clouds
3:15 PM 82.4 °F 30.2 °F 15% 30.23 in 10.0 mi East 11.5 mph 19.6 mph N/A   Clear
3:35 PM 82.4 °F 28.4 °F 14% 30.23 in 10.0 mi East 11.5 mph 21.9 mph N/A   Clear
3:55 PM 82.4 °F 28.4 °F 14% 30.23 in 10.0 mi ENE 4.6 mph 16.1 mph N/A   Scattered Clouds
4:15 PM 78.8 °F 26.6 °F 15% 30.23 in 10.0 mi ENE 9.2 mph 18.4 mph N/A   Overcast
4:35 PM 80.6 °F 28.4 °F 15% 30.22 in 10.0 mi SE 9.2 mph 16.1 mph N/A   Mostly Cloudy
4:55 PM 80.6 °F 28.4 °F 15% 30.23 in 10.0 mi ESE 8.1 mph - N/A   Scattered Clouds
5:15 PM 78.8 °F 26.6 °F 15% 30.22 in 10.0 mi ESE 9.2 mph 17.3 mph N/A   Clear
5:35 PM 77.0 °F 26.6 °F 16% 30.22 in 10.0 mi East 8.1 mph - N/A   Clear
5:55 PM 78.8 °F 26.6 °F 15% 30.22 in 10.0 mi NE 6.9 mph - N/A   Clear
6:15 PM 78.8 °F 28.4 °F 16% 30.22 in 10.0 mi NE 10.4 mph - N/A   Scattered Clouds
6:35 PM 77.0 °F 26.6 °F 16% 30.23 in 10.0 mi East 12.7 mph 20.7 mph N/A   Scattered Clouds
6:55 PM 75.2 °F 26.6 °F 17% 30.23 in 10.0 mi East 6.9 mph - N/A   Clear
7:15 PM 75.2 °F 26.6 °F 17% 30.24 in 10.0 mi ENE 6.9 mph - N/A   Clear
7:35 PM 73.4 °F 26.6 °F 18% 30.24 in 10.0 mi ENE 6.9 mph - N/A   Clear
7:55 PM 73.4 °F 28.4 °F 19% 30.25 in 10.0 mi ENE 8.1 mph - N/A   Clear
8:15 PM 73.4 °F 28.4 °F 19% 30.25 in 10.0 mi ENE 8.1 mph - N/A   Clear
8:35 PM 71.6 °F 28.4 °F 20% 30.26 in 10.0 mi ENE 9.2 mph - N/A   Clear
8:55 PM 71.6 °F 30.2 °F 22% 30.27 in 10.0 mi ENE 8.1 mph - N/A   Clear
9:15 PM 71.6 °F 30.2 °F 22% 30.27 in 10.0 mi ENE 6.9 mph - N/A   Clear
9:55 PM 69.8 °F 30.2 °F 23% 30.28 in 10.0 mi NE 11.5 mph - N/A   Clear
10:15 PM 69.8 °F 30.2 °F 23% 30.28 in 10.0 mi ENE 12.7 mph - N/A   Clear
10:35 PM 68.0 °F 30.2 °F 24% 30.29 in 10.0 mi ENE 11.5 mph - N/A   Clear
10:55 PM 68.0 °F 30.2 °F 24% 30.29 in 10.0 mi NE 12.7 mph - N/A   Clear
11:15 PM 68.0 °F 30.2 °F 24% 30.29 in 10.0 mi NNE 12.7 mph - N/A   Clear
11:35 PM 66.2 °F 30.2 °F 26% 30.28 in 10.0 mi NE 16.1 mph - N/A   Clear
11:55 PM 66.2 °F 30.2 °F 26% 30.29 in 10.0 mi NE 13.8 mph - N/A   Clear